owner,sensor,date,latitude,longitude,vertical_datum,sea_water_practical_salinity,qcFlag 
COMPS,ioos:station:USF.COMPS:ANC:1,2009-11-01T00:00:00Z,28.1930,-82.7890,1.0,19.438,1111122 
COMPS,ioos:station:USF.COMPS:ANC:1,2009-11-01T00:06:00Z,28.1930,-82.7890,1.0,19.42,1111122 
COMPS,ioos:station:USF.COMPS:ANC:1,2009-11-01T00:12:00Z,28.1930,-82.7890,1.0,19.378,1111122 
COMPS,ioos:station:USF.COMPS:ANC:1,2009-11-01T00:18:00Z,28.1930,-82.7890,1.0,19.326,1111122 
COMPS,ioos:station:USF.COMPS:ANC:1,2009-11-01T00:24:00Z,28.1930,-82.7890,1.0,19.288,1111122 
COMPS,ioos:station:USF.COMPS:ANC:1,2009-11-01T00:30:00Z,28.1930,-82.7890,1.0,19.248,1111122 
COMPS,ioos:station:USF.COMPS:ANC:1,2009-11-01T00:36:00Z,28.1930,-82.7890,1.0,19.231,1111122 
COMPS,ioos:station:USF.COMPS:ANC:1,2009-11-01T00:42:00Z,28.1930,-82.7890,1.0,19.226,1111122 
COMPS,ioos:station:USF.COMPS:ANC:1,2009-11-01T00:48:00Z,28.1930,-82.7890,1.0,19.207,1111122 
COMPS,ioos:station:USF.COMPS:ANC:1,2009-11-01T00:54:00Z,28.1930,-82.7890,1.0,19.212,1111122 
COMPS,ioos:station:USF.COMPS:ANC:1,2009-11-01T01:00:00Z,28.1930,-82.7890,1.0,19.195,1111122 
COMPS,ioos:station:USF.COMPS:ANC:1,2009-11-01T01:06:00Z,28.1930,-82.7890,1.0,19.178,1111122 
COMPS,ioos:station:USF.COMPS:ANC:1,2009-11-01T01:12:00Z,28.1930,-82.7890,1.0,19.21,1111122 
COMPS,ioos:station:USF.COMPS:ANC:1,2009-11-01T01:18:00Z,28.1930,-82.7890,1.0,19.235,1111122 
COMPS,ioos:station:USF.COMPS:ANC:1,2009-11-01T01:24:00Z,28.1930,-82.7890,1.0,19.258,1111122 
COMPS,ioos:station:USF.COMPS:ANC:1,2009-11-01T01:30:00Z,28.1930,-82.7890,1.0,19.321,1111122 
COMPS,ioos:station:USF.COMPS:ANC:1,2009-11-01T01:36:00Z,28.1930,-82.7890,1.0,19.337,1111122 
COMPS,ioos:station:USF.COMPS:ANC:1,2009-11-01T01:42:00Z,28.1930,-82.7890,1.0,19.364,1111122 
COMPS,ioos:station:USF.COMPS:ANC:1,2009-11-01T01:48:00Z,28.1930,-82.7890,1.0,19.422,1111122 
COMPS,ioos:station:USF.COMPS:ANC:1,2009-11-01T01:54:00Z,28.1930,-82.7890,1.0,19.432,1111122 
COMPS,ioos:station:USF.COMPS:ANC:1,2009-11-01T02:00:00Z,28.1930,-82.7890,1.0,19.501,1111122 
COMPS,ioos:station:USF.COMPS:ANC:1,2009-11-01T02:06:00Z,28.1930,-82.7890,1.0,19.495,1111122 
COMPS,ioos:station:USF.COMPS:ANC:1,2009-11-01T02:12:00Z,28.1930,-82.7890,1.0,19.566,1111122 
COMPS,ioos:station:USF.COMPS:ANC:1,2009-11-01T02:18:00Z,28.1930,-82.7890,1.0,19.604,1111122 
COMPS,ioos:station:USF.COMPS:ANC:1,2009-11-01T02:24:00Z,28.1930,-82.7890,1.0,19.641,1111122 
COMPS,ioos:station:USF.COMPS:ANC:1,2009-11-01T02:30:00Z,28.1930,-82.7890,1.0,19.69,1111122 
COMPS,ioos:station:USF.COMPS:ANC:1,2009-11-01T02:36:00Z,28.1930,-82.7890,1.0,19.761,1111122 
COMPS,ioos:station:USF.COMPS:ANC:1,2009-11-01T02:42:00Z,28.1930,-82.7890,1.0,19.786,1111122 
COMPS,ioos:station:USF.COMPS:ANC:1,2009-11-01T02:48:00Z,28.1930,-82.7890,1.0,19.832,1111122 
COMPS,ioos:station:USF.COMPS:ANC:1,2009-11-01T02:54:00Z,28.1930,-82.7890,1.0,19.863,1111122 
COMPS,ioos:station:USF.COMPS:ANC:1,2009-11-01T03:00:00Z,28.1930,-82.7890,1.0,19.897,1111122 
COMPS,ioos:station:USF.COMPS:ANC:1,2009-11-01T03:06:00Z,28.1930,-82.7890,1.0,19.911,1111122 
COMPS,ioos:station:USF.COMPS:ANC:1,2009-11-01T03:12:00Z,28.1930,-82.7890,1.0,19.916,1111122 
COMPS,ioos:station:USF.COMPS:ANC:1,2009-11-01T03:18:00Z,28.1930,-82.7890,1.0,19.906,1111122 
COMPS,ioos:station:USF.COMPS:ANC:1,2009-11-01T03:24:00Z,28.1930,-82.7890,1.0,19.904,1111122 
COMPS,ioos:station:USF.COMPS:ANC:1,2009-11-01T03:30:00Z,28.1930,-82.7890,1.0,19.911,1111122 
COMPS,ioos:station:USF.COMPS:ANC:1,2009-11-01T03:36:00Z,28.1930,-82.7890,1.0,19.93,1111122 
COMPS,ioos:station:USF.COMPS:ANC:1,2009-11-01T03:42:00Z,28.1930,-82.7890,1.0,19.969,1111122 
COMPS,ioos:station:USF.COMPS:ANC:1,2009-11-01T03:48:00Z,28.1930,-82.7890,1.0,19.986,1111122 
COMPS,ioos:station:USF.COMPS:ANC:1,2009-11-01T03:54:00Z,28.1930,-82.7890,1.0,19.998,1111122 
COMPS,ioos:station:USF.COMPS:ANC:1,2009-11-01T04:00:00Z,28.1930,-82.7890,1.0,19.988,1111122 
COMPS,ioos:station:USF.COMPS:ANC:1,2009-11-01T04:06:00Z,28.1930,-82.7890,1.0,19.949,1111122 
COMPS,ioos:station:USF.COMPS:ANC:1,2009-11-01T04:12:00Z,28.1930,-82.7890,1.0,19.96,1111122 
COMPS,ioos:station:USF.COMPS:ANC:1,2009-11-01T04:18:00Z,28.1930,-82.7890,1.0,19.988,1111122 
COMPS,ioos:station:USF.COMPS:ANC:1,2009-11-01T04:24:00Z,28.1930,-82.7890,1.0,20.019,1111122 
COMPS,ioos:station:USF.COMPS:ANC:1,2009-11-01T04:30:00Z,28.1930,-82.7890,1.0,20.042,1111122 
COMPS,ioos:station:USF.COMPS:ANC:1,2009-11-01T04:36:00Z,28.1930,-82.7890,1.0,20.046,1111122 
COMPS,ioos:station:USF.COMPS:ANC:1,2009-11-01T04:42:00Z,28.1930,-82.7890,1.0,20.013,1111122 
COMPS,ioos:station:USF.COMPS:ANC:1,2009-11-01T04:48:00Z,28.1930,-82.7890,1.0,20.015,1111122 
COMPS,ioos:station:USF.COMPS:ANC:1,2009-11-01T04:54:00Z,28.1930,-82.7890,1.0,20.029,1111122 
COMPS,ioos:station:USF.COMPS:ANC:1,2009-11-01T05:00:00Z,28.1930,-82.7890,1.0,20.031,1111122 
COMPS,ioos:station:USF.COMPS:ANC:1,2009-11-01T05:06:00Z,28.1930,-82.7890,1.0,20.027,1111122 
COMPS,ioos:station:USF.COMPS:ANC:1,2009-11-01T05:12:00Z,28.1930,-82.7890,1.0,20.022,1111122 
COMPS,ioos:station:USF.COMPS:ANC:1,2009-11-01T05:18:00Z,28.1930,-82.7890,1.0,20.028,1111122 
COMPS,ioos:station:USF.COMPS:ANC:1,2009-11-01T05:24:00Z,28.1930,-82.7890,1.0,19.982,1111122 
COMPS,ioos:station:USF.COMPS:ANC:1,2009-11-01T05:30:00Z,28.1930,-82.7890,1.0,19.959,1111122 
COMPS,ioos:station:USF.COMPS:ANC:1,2009-11-01T05:36:00Z,28.1930,-82.7890,1.0,20.0,1111122 
COMPS,ioos:station:USF.COMPS:ANC:1,2009-11-01T05:42:00Z,28.1930,-82.7890,1.0,19.96,1111122 
COMPS,ioos:station:USF.COMPS:ANC:1,2009-11-01T05:48:00Z,28.1930,-82.7890,1.0,19.964,1111122 
COMPS,ioos:station:USF.COMPS:ANC:1,2009-11-01T05:54:00Z,28.1930,-82.7890,1.0,19.996,1111122 
COMPS,ioos:station:USF.COMPS:ANC:1,2009-11-01T06:00:00Z,28.1930,-82.7890,1.0,19.998,1111122 
COMPS,ioos:station:USF.COMPS:ANC:1,2009-11-01T06:06:00Z,28.1930,-82.7890,1.0,20.02,1111122 
COMPS,ioos:station:USF.COMPS:ANC:1,2009-11-01T06:12:00Z,28.1930,-82.7890,1.0,20.026,1111122 
COMPS,ioos:station:USF.COMPS:ANC:1,2009-11-01T06:18:00Z,28.1930,-82.7890,1.0,20.058,1111122 
COMPS,ioos:station:USF.COMPS:ANC:1,2009-11-01T06:24:00Z,28.1930,-82.7890,1.0,20.06,1111122 
COMPS,ioos:station:USF.COMPS:ANC:1,2009-11-01T06:30:00Z,28.1930,-82.7890,1.0,20.077,1111122 
COMPS,ioos:station:USF.COMPS:ANC:1,2009-11-01T06:36:00Z,28.1930,-82.7890,1.0,20.086,1111122 
COMPS,ioos:station:USF.COMPS:ANC:1,2009-11-01T06:42:00Z,28.1930,-82.7890,1.0,20.088,1111122 
COMPS,ioos:station:USF.COMPS:ANC:1,2009-11-01T06:48:00Z,28.1930,-82.7890,1.0,20.111,1111122 
COMPS,ioos:station:USF.COMPS:ANC:1,2009-11-01T06:54:00Z,28.1930,-82.7890,1.0,20.127,1111122 
COMPS,ioos:station:USF.COMPS:ANC:1,2009-11-01T07:00:00Z,28.1930,-82.7890,1.0,20.088,1111122 
COMPS,ioos:station:USF.COMPS:ANC:1,2009-11-01T07:06:00Z,28.1930,-82.7890,1.0,20.004,1111122 
COMPS,ioos:station:USF.COMPS:ANC:1,2009-11-01T07:12:00Z,28.1930,-82.7890,1.0,19.87,1111122 
COMPS,ioos:station:USF.COMPS:ANC:1,2009-11-01T07:18:00Z,28.1930,-82.7890,1.0,19.751,1111122 
COMPS,ioos:station:USF.COMPS:ANC:1,2009-11-01T07:24:00Z,28.1930,-82.7890,1.0,19.695,1111122 
COMPS,ioos:station:USF.COMPS:ANC:1,2009-11-01T07:30:00Z,28.1930,-82.7890,1.0,19.666,1111122 
COMPS,ioos:station:USF.COMPS:ANC:1,2009-11-01T07:36:00Z,28.1930,-82.7890,1.0,19.604,1111122 
COMPS,ioos:station:USF.COMPS:ANC:1,2009-11-01T07:42:00Z,28.1930,-82.7890,1.0,19.542,1111122 
COMPS,ioos:station:USF.COMPS:ANC:1,2009-11-01T07:48:00Z,28.1930,-82.7890,1.0,19.483,1111122 
COMPS,ioos:station:USF.COMPS:ANC:1,2009-11-01T07:54:00Z,28.1930,-82.7890,1.0,19.463,1111122 
COMPS,ioos:station:USF.COMPS:ANC:1,2009-11-01T08:00:00Z,28.1930,-82.7890,1.0,19.475,1111122 
COMPS,ioos:station:USF.COMPS:ANC:1,2009-11-01T08:06:00Z,28.1930,-82.7890,1.0,19.454,1111122 
COMPS,ioos:station:USF.COMPS:ANC:1,2009-11-01T08:12:00Z,28.1930,-82.7890,1.0,19.428,1111122 
COMPS,ioos:station:USF.COMPS:ANC:1,2009-11-01T08:18:00Z,28.1930,-82.7890,1.0,19.425,1111122 
COMPS,ioos:station:USF.COMPS:ANC:1,2009-11-01T08:24:00Z,28.1930,-82.7890,1.0,19.412,1111122 
COMPS,ioos:station:USF.COMPS:ANC:1,2009-11-01T08:30:00Z,28.1930,-82.7890,1.0,19.403,1111122 
COMPS,ioos:station:USF.COMPS:ANC:1,2009-11-01T08:36:00Z,28.1930,-82.7890,1.0,19.412,1111122 
COMPS,ioos:station:USF.COMPS:ANC:1,2009-11-01T08:42:00Z,28.1930,-82.7890,1.0,19.417,1111122 
COMPS,ioos:station:USF.COMPS:ANC:1,2009-11-01T08:48:00Z,28.1930,-82.7890,1.0,19.415,1111122 
COMPS,ioos:station:USF.COMPS:ANC:1,2009-11-01T08:54:00Z,28.1930,-82.7890,1.0,19.457,1111122 
COMPS,ioos:station:USF.COMPS:ANC:1,2009-11-01T09:00:00Z,28.1930,-82.7890,1.0,19.506,1111122 
COMPS,ioos:station:USF.COMPS:ANC:1,2009-11-01T09:06:00Z,28.1930,-82.7890,1.0,19.551,1111122 
COMPS,ioos:station:USF.COMPS:ANC:1,2009-11-01T09:12:00Z,28.1930,-82.7890,1.0,19.605,1111122 
COMPS,ioos:station:USF.COMPS:ANC:1,2009-11-01T09:18:00Z,28.1930,-82.7890,1.0,19.62,1111122 
COMPS,ioos:station:USF.COMPS:ANC:1,2009-11-01T09:24:00Z,28.1930,-82.7890,1.0,19.685,1111122 
COMPS,ioos:station:USF.COMPS:ANC:1,2009-11-01T09:30:00Z,28.1930,-82.7890,1.0,19.71,1111122 
COMPS,ioos:station:USF.COMPS:ANC:1,2009-11-01T09:36:00Z,28.1930,-82.7890,1.0,19.728,1111122 
COMPS,ioos:station:USF.COMPS:ANC:1,2009-11-01T09:42:00Z,28.1930,-82.7890,1.0,19.734,1111122 
COMPS,ioos:station:USF.COMPS:ANC:1,2009-11-01T09:48:00Z,28.1930,-82.7890,1.0,19.783,1111122 
COMPS,ioos:station:USF.COMPS:ANC:1,2009-11-01T09:54:00Z,28.1930,-82.7890,1.0,19.822,1111122 
COMPS,ioos:station:USF.COMPS:ANC:1,2009-11-01T10:00:00Z,28.1930,-82.7890,1.0,19.811,1111122 
COMPS,ioos:station:USF.COMPS:ANC:1,2009-11-01T10:06:00Z,28.1930,-82.7890,1.0,19.788,1111122 
COMPS,ioos:station:USF.COMPS:ANC:1,2009-11-01T10:12:00Z,28.1930,-82.7890,1.0,19.81,1111122 
COMPS,ioos:station:USF.COMPS:ANC:1,2009-11-01T10:18:00Z,28.1930,-82.7890,1.0,19.78,1111122 
COMPS,ioos:station:USF.COMPS:ANC:1,2009-11-01T10:24:00Z,28.1930,-82.7890,1.0,19.729,1111122 
COMPS,ioos:station:USF.COMPS:ANC:1,2009-11-01T10:30:00Z,28.1930,-82.7890,1.0,19.653,1111122 
COMPS,ioos:station:USF.COMPS:ANC:1,2009-11-01T10:36:00Z,28.1930,-82.7890,1.0,19.633,1111122 
COMPS,ioos:station:USF.COMPS:ANC:1,2009-11-01T10:42:00Z,28.1930,-82.7890,1.0,19.62,1111122 
COMPS,ioos:station:USF.COMPS:ANC:1,2009-11-01T10:48:00Z,28.1930,-82.7890,1.0,19.595,1111122 
COMPS,ioos:station:USF.COMPS:ANC:1,2009-11-01T10:54:00Z,28.1930,-82.7890,1.0,19.537,1111122 
COMPS,ioos:station:USF.COMPS:ANC:1,2009-11-01T11:00:00Z,28.1930,-82.7890,1.0,19.471,1111122 
COMPS,ioos:station:USF.COMPS:ANC:1,2009-11-01T11:06:00Z,28.1930,-82.7890,1.0,19.467,1111122 
COMPS,ioos:station:USF.COMPS:ANC:1,2009-11-01T11:12:00Z,28.1930,-82.7890,1.0,19.46,1111122 
COMPS,ioos:station:USF.COMPS:ANC:1,2009-11-01T11:18:00Z,28.1930,-82.7890,1.0,19.427,1111122 
COMPS,ioos:station:USF.COMPS:ANC:1,2009-11-01T11:24:00Z,28.1930,-82.7890,1.0,19.421,1111122 
COMPS,ioos:station:USF.COMPS:ANC:1,2009-11-01T11:30:00Z,28.1930,-82.7890,1.0,19.419,1111122 
COMPS,ioos:station:USF.COMPS:ANC:1,2009-11-01T11:36:00Z,28.1930,-82.7890,1.0,19.394,1111122 
COMPS,ioos:station:USF.COMPS:ANC:1,2009-11-01T11:42:00Z,28.1930,-82.7890,1.0,19.477,1111122 
COMPS,ioos:station:USF.COMPS:ANC:1,2009-11-01T11:48:00Z,28.1930,-82.7890,1.0,19.332,1111122 
COMPS,ioos:station:USF.COMPS:ANC:1,2009-11-01T11:54:00Z,28.1930,-82.7890,1.0,19.298,1111122 
COMPS,ioos:station:USF.COMPS:ANC:1,2009-11-01T12:00:00Z,28.1930,-82.7890,1.0,19.411,1111122 
COMPS,ioos:station:USF.COMPS:ANC:1,2009-11-01T12:06:00Z,28.1930,-82.7890,1.0,19.533,1111122 
COMPS,ioos:station:USF.COMPS:ANC:1,2009-11-01T12:12:00Z,28.1930,-82.7890,1.0,19.573,1111122 
COMPS,ioos:station:USF.COMPS:ANC:1,2009-11-01T12:18:00Z,28.1930,-82.7890,1.0,19.578,1111122 
COMPS,ioos:station:USF.COMPS:ANC:1,2009-11-01T12:24:00Z,28.1930,-82.7890,1.0,19.558,1111122 
COMPS,ioos:station:USF.COMPS:ANC:1,2009-11-01T12:30:00Z,28.1930,-82.7890,1.0,19.407,1111122 
COMPS,ioos:station:USF.COMPS:ANC:1,2009-11-01T12:36:00Z,28.1930,-82.7890,1.0,19.475,1111122 
COMPS,ioos:station:USF.COMPS:ANC:1,2009-11-01T12:42:00Z,28.1930,-82.7890,1.0,19.516,1111122 
COMPS,ioos:station:USF.COMPS:ANC:1,2009-11-01T12:48:00Z,28.1930,-82.7890,1.0,19.573,1111122 
COMPS,ioos:station:USF.COMPS:ANC:1,2009-11-01T12:54:00Z,28.1930,-82.7890,1.0,19.503,1111122 
COMPS,ioos:station:USF.COMPS:ANC:1,2009-11-01T13:00:00Z,28.1930,-82.7890,1.0,19.553,1111122 
COMPS,ioos:station:USF.COMPS:ANC:1,2009-11-01T13:06:00Z,28.1930,-82.7890,1.0,19.467,1111122 
COMPS,ioos:station:USF.COMPS:ANC:1,2009-11-01T13:12:00Z,28.1930,-82.7890,1.0,19.352,1111122 
COMPS,ioos:station:USF.COMPS:ANC:1,2009-11-01T13:18:00Z,28.1930,-82.7890,1.0,19.207,1111122 
COMPS,ioos:station:USF.COMPS:ANC:1,2009-11-01T13:24:00Z,28.1930,-82.7890,1.0,19.26,1111122 
COMPS,ioos:station:USF.COMPS:ANC:1,2009-11-01T13:30:00Z,28.1930,-82.7890,1.0,19.132,1111122 
COMPS,ioos:station:USF.COMPS:ANC:1,2009-11-01T13:36:00Z,28.1930,-82.7890,1.0,19.299,1111122 
COMPS,ioos:station:USF.COMPS:ANC:1,2009-11-01T13:42:00Z,28.1930,-82.7890,1.0,19.37,1111122 
COMPS,ioos:station:USF.COMPS:ANC:1,2009-11-01T13:48:00Z,28.1930,-82.7890,1.0,19.318,1111122 
COMPS,ioos:station:USF.COMPS:ANC:1,2009-11-01T13:54:00Z,28.1930,-82.7890,1.0,19.195,1111122 
COMPS,ioos:station:USF.COMPS:ANC:1,2009-11-01T14:00:00Z,28.1930,-82.7890,1.0,19.086,1111122 
COMPS,ioos:station:USF.COMPS:ANC:1,2009-11-01T14:06:00Z,28.1930,-82.7890,1.0,18.929,1111122 
COMPS,ioos:station:USF.COMPS:ANC:1,2009-11-01T14:12:00Z,28.1930,-82.7890,1.0,18.827,1111122 
COMPS,ioos:station:USF.COMPS:ANC:1,2009-11-01T14:18:00Z,28.1930,-82.7890,1.0,18.769,1111122 
COMPS,ioos:station:USF.COMPS:ANC:1,2009-11-01T14:24:00Z,28.1930,-82.7890,1.0,18.696,1111122 
COMPS,ioos:station:USF.COMPS:ANC:1,2009-11-01T14:30:00Z,28.1930,-82.7890,1.0,18.699,1111122 
COMPS,ioos:station:USF.COMPS:ANC:1,2009-11-01T14:36:00Z,28.1930,-82.7890,1.0,18.707,1111122 
COMPS,ioos:station:USF.COMPS:ANC:1,2009-11-01T14:42:00Z,28.1930,-82.7890,1.0,18.674,1111122 
COMPS,ioos:station:USF.COMPS:ANC:1,2009-11-01T14:48:00Z,28.1930,-82.7890,1.0,18.663,1111122 
COMPS,ioos:station:USF.COMPS:ANC:1,2009-11-01T14:54:00Z,28.1930,-82.7890,1.0,18.675,1111122 
COMPS,ioos:station:USF.COMPS:ANC:1,2009-11-01T15:00:00Z,28.1930,-82.7890,1.0,18.703,1111122 
COMPS,ioos:station:USF.COMPS:ANC:1,2009-11-01T15:06:00Z,28.1930,-82.7890,1.0,18.842,1111122 
COMPS,ioos:station:USF.COMPS:ANC:1,2009-11-01T15:12:00Z,28.1930,-82.7890,1.0,18.842,1111122 
COMPS,ioos:station:USF.COMPS:ANC:1,2009-11-01T15:18:00Z,28.1930,-82.7890,1.0,19.083,1111122 
COMPS,ioos:station:USF.COMPS:ANC:1,2009-11-01T15:24:00Z,28.1930,-82.7890,1.0,19.126,1111122 
COMPS,ioos:station:USF.COMPS:ANC:1,2009-11-01T15:30:00Z,28.1930,-82.7890,1.0,19.063,1111122 
COMPS,ioos:station:USF.COMPS:ANC:1,2009-11-01T15:36:00Z,28.1930,-82.7890,1.0,19.016,1111122 
COMPS,ioos:station:USF.COMPS:ANC:1,2009-11-01T15:42:00Z,28.1930,-82.7890,1.0,18.876,1111122 
COMPS,ioos:station:USF.COMPS:ANC:1,2009-11-01T15:48:00Z,28.1930,-82.7890,1.0,18.794,1111122 
COMPS,ioos:station:USF.COMPS:ANC:1,2009-11-01T15:54:00Z,28.1930,-82.7890,1.0,19.059,1111122 
COMPS,ioos:station:USF.COMPS:ANC:1,2009-11-01T16:00:00Z,28.1930,-82.7890,1.0,19.413,1111122 
COMPS,ioos:station:USF.COMPS:ANC:1,2009-11-01T16:06:00Z,28.1930,-82.7890,1.0,19.505,1111122 
COMPS,ioos:station:USF.COMPS:ANC:1,2009-11-01T16:12:00Z,28.1930,-82.7890,1.0,19.488,1111122 
COMPS,ioos:station:USF.COMPS:ANC:1,2009-11-01T16:18:00Z,28.1930,-82.7890,1.0,19.399,1111122 
COMPS,ioos:station:USF.COMPS:ANC:1,2009-11-01T16:24:00Z,28.1930,-82.7890,1.0,19.34,1111122 
COMPS,ioos:station:USF.COMPS:ANC:1,2009-11-01T16:30:00Z,28.1930,-82.7890,1.0,19.314,1111122 
COMPS,ioos:station:USF.COMPS:ANC:1,2009-11-01T16:36:00Z,28.1930,-82.7890,1.0,19.316,1111122 
COMPS,ioos:station:USF.COMPS:ANC:1,2009-11-01T16:42:00Z,28.1930,-82.7890,1.0,19.423,1111122 
COMPS,ioos:station:USF.COMPS:ANC:1,2009-11-01T16:48:00Z,28.1930,-82.7890,1.0,19.52,1111122 
COMPS,ioos:station:USF.COMPS:ANC:1,2009-11-01T16:54:00Z,28.1930,-82.7890,1.0,19.635,1111122 
COMPS,ioos:station:USF.COMPS:ANC:1,2009-11-01T17:00:00Z,28.1930,-82.7890,1.0,19.719,1111122 
COMPS,ioos:station:USF.COMPS:ANC:1,2009-11-01T17:06:00Z,28.1930,-82.7890,1.0,19.799,1111122 
COMPS,ioos:station:USF.COMPS:ANC:1,2009-11-01T17:12:00Z,28.1930,-82.7890,1.0,19.84,1111122 
COMPS,ioos:station:USF.COMPS:ANC:1,2009-11-01T17:18:00Z,28.1930,-82.7890,1.0,19.894,1111122 
COMPS,ioos:station:USF.COMPS:ANC:1,2009-11-01T17:24:00Z,28.1930,-82.7890,1.0,19.918,1111122 
COMPS,ioos:station:USF.COMPS:ANC:1,2009-11-01T17:30:00Z,28.1930,-82.7890,1.0,19.936,1111122 
COMPS,ioos:station:USF.COMPS:ANC:1,2009-11-01T17:36:00Z,28.1930,-82.7890,1.0,19.96,1111122 
COMPS,ioos:station:USF.COMPS:ANC:1,2009-11-01T17:42:00Z,28.1930,-82.7890,1.0,20.036,1111122 
COMPS,ioos:station:USF.COMPS:ANC:1,2009-11-01T17:48:00Z,28.1930,-82.7890,1.0,20.075,1111122 
COMPS,ioos:station:USF.COMPS:ANC:1,2009-11-01T17:54:00Z,28.1930,-82.7890,1.0,20.06,1111122 
COMPS,ioos:station:USF.COMPS:ANC:1,2009-11-01T18:00:00Z,28.1930,-82.7890,1.0,20.084,1111122 
COMPS,ioos:station:USF.COMPS:ANC:1,2009-11-01T18:06:00Z,28.1930,-82.7890,1.0,20.117,1111122 
COMPS,ioos:station:USF.COMPS:ANC:1,2009-11-01T18:12:00Z,28.1930,-82.7890,1.0,20.102,1111122 
COMPS,ioos:station:USF.COMPS:ANC:1,2009-11-01T18:18:00Z,28.1930,-82.7890,1.0,20.117,1111122 
COMPS,ioos:station:USF.COMPS:ANC:1,2009-11-01T18:24:00Z,28.1930,-82.7890,1.0,20.09,1111122 
COMPS,ioos:station:USF.COMPS:ANC:1,2009-11-01T18:30:00Z,28.1930,-82.7890,1.0,20.11,1111122 
COMPS,ioos:station:USF.COMPS:ANC:1,2009-11-01T18:36:00Z,28.1930,-82.7890,1.0,20.145,1111122 
COMPS,ioos:station:USF.COMPS:ANC:1,2009-11-01T18:42:00Z,28.1930,-82.7890,1.0,20.195,1111122 
COMPS,ioos:station:USF.COMPS:ANC:1,2009-11-01T18:48:00Z,28.1930,-82.7890,1.0,20.208,1111122 
COMPS,ioos:station:USF.COMPS:ANC:1,2009-11-01T18:54:00Z,28.1930,-82.7890,1.0,20.22,1111122 
COMPS,ioos:station:USF.COMPS:ANC:1,2009-11-01T19:00:00Z,28.1930,-82.7890,1.0,20.216,1111122 
COMPS,ioos:station:USF.COMPS:ANC:1,2009-11-01T19:06:00Z,28.1930,-82.7890,1.0,20.25,1111122 
COMPS,ioos:station:USF.COMPS:ANC:1,2009-11-01T19:12:00Z,28.1930,-82.7890,1.0,20.249,1111122 
COMPS,ioos:station:USF.COMPS:ANC:1,2009-11-01T19:18:00Z,28.1930,-82.7890,1.0,20.29,1111122 
COMPS,ioos:station:USF.COMPS:ANC:1,2009-11-01T19:24:00Z,28.1930,-82.7890,1.0,20.264,1111122 
COMPS,ioos:station:USF.COMPS:ANC:1,2009-11-01T19:30:00Z,28.1930,-82.7890,1.0,20.212,1111122 
COMPS,ioos:station:USF.COMPS:ANC:1,2009-11-01T19:36:00Z,28.1930,-82.7890,1.0,20.122,1111122 
COMPS,ioos:station:USF.COMPS:ANC:1,2009-11-01T19:42:00Z,28.1930,-82.7890,1.0,20.185,1111122 
COMPS,ioos:station:USF.COMPS:ANC:1,2009-11-01T19:48:00Z,28.1930,-82.7890,1.0,20.155,1111122 
COMPS,ioos:station:USF.COMPS:ANC:1,2009-11-01T19:54:00Z,28.1930,-82.7890,1.0,20.182,1111122 
COMPS,ioos:station:USF.COMPS:ANC:1,2009-11-01T20:00:00Z,28.1930,-82.7890,1.0,20.212,1111122 
COMPS,ioos:station:USF.COMPS:ANC:1,2009-11-01T20:06:00Z,28.1930,-82.7890,1.0,20.176,1111122 
COMPS,ioos:station:USF.COMPS:ANC:1,2009-11-01T20:12:00Z,28.1930,-82.7890,1.0,20.205,1111122 
COMPS,ioos:station:USF.COMPS:ANC:1,2009-11-01T20:18:00Z,28.1930,-82.7890,1.0,20.194,1111122 
COMPS,ioos:station:USF.COMPS:ANC:1,2009-11-01T20:24:00Z,28.1930,-82.7890,1.0,19.967,1111122 
COMPS,ioos:station:USF.COMPS:ANC:1,2009-11-01T20:30:00Z,28.1930,-82.7890,1.0,19.912,1111122 
COMPS,ioos:station:USF.COMPS:ANC:1,2009-11-01T20:36:00Z,28.1930,-82.7890,1.0,20.074,1111122 
COMPS,ioos:station:USF.COMPS:ANC:1,2009-11-01T20:42:00Z,28.1930,-82.7890,1.0,20.242,1111122 
COMPS,ioos:station:USF.COMPS:ANC:1,2009-11-01T20:48:00Z,28.1930,-82.7890,1.0,20.161,1111122 
COMPS,ioos:station:USF.COMPS:ANC:1,2009-11-01T20:54:00Z,28.1930,-82.7890,1.0,20.146,1111122 
COMPS,ioos:station:USF.COMPS:ANC:1,2009-11-01T21:00:00Z,28.1930,-82.7890,1.0,20.201,1111122 
COMPS,ioos:station:USF.COMPS:ANC:1,2009-11-01T21:06:00Z,28.1930,-82.7890,1.0,20.139,1111122 
COMPS,ioos:station:USF.COMPS:ANC:1,2009-11-01T21:12:00Z,28.1930,-82.7890,1.0,20.094,1111122 
COMPS,ioos:station:USF.COMPS:ANC:1,2009-11-01T21:18:00Z,28.1930,-82.7890,1.0,20.04,1111122 
COMPS,ioos:station:USF.COMPS:ANC:1,2009-11-01T21:24:00Z,28.1930,-82.7890,1.0,20.041,1111122 
COMPS,ioos:station:USF.COMPS:ANC:1,2009-11-01T21:30:00Z,28.1930,-82.7890,1.0,20.039,1111122 
COMPS,ioos:station:USF.COMPS:ANC:1,2009-11-01T21:36:00Z,28.1930,-82.7890,1.0,20.024,1111122 
COMPS,ioos:station:USF.COMPS:ANC:1,2009-11-01T21:42:00Z,28.1930,-82.7890,1.0,20.107,1111122 
COMPS,ioos:station:USF.COMPS:ANC:1,2009-11-01T21:48:00Z,28.1930,-82.7890,1.0,20.112,1111122 
COMPS,ioos:station:USF.COMPS:ANC:1,2009-11-01T21:54:00Z,28.1930,-82.7890,1.0,20.078,1111122 
COMPS,ioos:station:USF.COMPS:ANC:1,2009-11-01T22:00:00Z,28.1930,-82.7890,1.0,20.042,1111122 
COMPS,ioos:station:USF.COMPS:ANC:1,2009-11-01T22:06:00Z,28.1930,-82.7890,1.0,20.118,1111122 
COMPS,ioos:station:USF.COMPS:ANC:1,2009-11-01T22:12:00Z,28.1930,-82.7890,1.0,20.109,1111122 
COMPS,ioos:station:USF.COMPS:ANC:1,2009-11-01T22:18:00Z,28.1930,-82.7890,1.0,20.16,1111122 
COMPS,ioos:station:USF.COMPS:ANC:1,2009-11-01T22:24:00Z,28.1930,-82.7890,1.0,20.17,1111122 
COMPS,ioos:station:USF.COMPS:ANC:1,2009-11-01T22:30:00Z,28.1930,-82.7890,1.0,20.18,1111122 
COMPS,ioos:station:USF.COMPS:ANC:1,2009-11-01T22:36:00Z,28.1930,-82.7890,1.0,20.152,1111122 
COMPS,ioos:station:USF.COMPS:ANC:1,2009-11-01T22:42:00Z,28.1930,-82.7890,1.0,20.182,1111122 
COMPS,ioos:station:USF.COMPS:ANC:1,2009-11-01T22:48:00Z,28.1930,-82.7890,1.0,20.247,1111122 
COMPS,ioos:station:USF.COMPS:ANC:1,2009-11-01T22:54:00Z,28.1930,-82.7890,1.0,20.208,1111122 
COMPS,ioos:station:USF.COMPS:ANC:1,2009-11-01T23:00:00Z,28.1930,-82.7890,1.0,20.238,1111122 
COMPS,ioos:station:USF.COMPS:ANC:1,2009-11-01T23:06:00Z,28.1930,-82.7890,1.0,20.163,1111122 
COMPS,ioos:station:USF.COMPS:ANC:1,2009-11-01T23:12:00Z,28.1930,-82.7890,1.0,20.133,1111122 
COMPS,ioos:station:USF.COMPS:ANC:1,2009-11-01T23:18:00Z,28.1930,-82.7890,1.0,20.108,1111122 
COMPS,ioos:station:USF.COMPS:ANC:1,2009-11-01T23:24:00Z,28.1930,-82.7890,1.0,20.098,1111122 
COMPS,ioos:station:USF.COMPS:ANC:1,2009-11-01T23:30:00Z,28.1930,-82.7890,1.0,20.056,1111122 
COMPS,ioos:station:USF.COMPS:ANC:1,2009-11-01T23:36:00Z,28.1930,-82.7890,1.0,20.032,1111122 
COMPS,ioos:station:USF.COMPS:ANC:1,2009-11-01T23:42:00Z,28.1930,-82.7890,1.0,20.03,1111122 
COMPS,ioos:station:USF.COMPS:ANC:1,2009-11-01T23:48:00Z,28.1930,-82.7890,1.0,19.999,1111122 
COMPS,ioos:station:USF.COMPS:ANC:1,2009-11-01T23:54:00Z,28.1930,-82.7890,1.0,19.952,1111122 
COMPS,ioos:station:USF.COMPS:ANC:1,2009-11-02T00:00:00Z,28.1930,-82.7890,1.0,19.951,1111122 
COMPS,ioos:station:USF.COMPS:ANC:1,2009-11-02T00:06:00Z,28.1930,-82.7890,1.0,20.022,1111122 
COMPS,ioos:station:USF.COMPS:ANC:1,2009-11-02T00:12:00Z,28.1930,-82.7890,1.0,19.952,1111122 
COMPS,ioos:station:USF.COMPS:ANC:1,2009-11-02T00:18:00Z,28.1930,-82.7890,1.0,19.964,1111122 
COMPS,ioos:station:USF.COMPS:ANC:1,2009-11-02T00:24:00Z,28.1930,-82.7890,1.0,19.978,1111122 
COMPS,ioos:station:USF.COMPS:ANC:1,2009-11-02T00:30:00Z,28.1930,-82.7890,1.0,19.805,1111122 
COMPS,ioos:station:USF.COMPS:ANC:1,2009-11-02T00:36:00Z,28.1930,-82.7890,1.0,19.702,1111122 
COMPS,ioos:station:USF.COMPS:ANC:1,2009-11-02T00:42:00Z,28.1930,-82.7890,1.0,19.792,1111122 
COMPS,ioos:station:USF.COMPS:ANC:1,2009-11-02T00:48:00Z,28.1930,-82.7890,1.0,20.048,1111122 
COMPS,ioos:station:USF.COMPS:ANC:1,2009-11-02T00:54:00Z,28.1930,-82.7890,1.0,20.015,1111122 
COMPS,ioos:station:USF.COMPS:ANC:1,2009-11-02T01:00:00Z,28.1930,-82.7890,1.0,19.969,1111122 
COMPS,ioos:station:USF.COMPS:ANC:1,2009-11-02T01:06:00Z,28.1930,-82.7890,1.0,20.07,1111122 
COMPS,ioos:station:USF.COMPS:ANC:1,2009-11-02T01:12:00Z,28.1930,-82.7890,1.0,20.064,1111122 
COMPS,ioos:station:USF.COMPS:ANC:1,2009-11-02T01:18:00Z,28.1930,-82.7890,1.0,19.995,1111122 
COMPS,ioos:station:USF.COMPS:ANC:1,2009-11-02T01:24:00Z,28.1930,-82.7890,1.0,19.913,1111122 
COMPS,ioos:station:USF.COMPS:ANC:1,2009-11-02T01:30:00Z,28.1930,-82.7890,1.0,19.906,1111122 
COMPS,ioos:station:USF.COMPS:ANC:1,2009-11-02T01:36:00Z,28.1930,-82.7890,1.0,19.897,1111122 